Preview of NWS' New Version of Forecast
This preview is not operational and should not be used for support decisions.

Regional Weather Roundup (RWR)

Issued by National Weather Service (NWS)

                            
605 
ASUS43 KDTX 212310
RWRMI 
MICHIGAN HOURLY REGIONAL WEATHER ROUNDUP
NATIONAL WEATHER SERVICE DETROIT/PONTIAC MI
ISSUED BY NATIONAL WEATHER SERVICE GRAND RAPIDS MI
700 PM EDT THU JUN 21 2018

NOTE: "FAIR" INDICATES FEW OR NO CLOUDS BELOW 12,000 FEET WITH NO
SIGNIFICANT WEATHER AND/OR OBSTRUCTION TO VISIBILITY.

MIZ047>049-052>055-059>063-066>070-074>076-081>083-220000-
SOUTHEAST LOWER MICHIGAN
  
CITY           SKY/WX    TMP DP  RH WIND       PRES   REMARKS
ADRIAN         FAIR      72  53  51 E12       29.83S                  
ALMA           FAIR      67  55  65 NE10      29.89R                  
ANN ARBOR      FAIR      73  58  59 E7        29.83S                  
BAD AXE        FAIR      64  46  51 NE12      29.92S                  
DETROIT CITY   FAIR      74  59  59 E9        29.85R                  
DETROIT        CLOUDY    76  56  49 E13       29.84R                  
FLINT          FAIR      76  53  44 E12       29.85S                  
GROSSE ILE     FAIR      72  58  60 E6        29.82S                  
HILLSDALE      FAIR      70  54  56 E8        29.83S                  
HOWELL         FAIR      75  55  50 NE7       29.84S                  

CITY           SKY/WX    TMP DP  RH WIND       PRES   REMARKS
JACKSON        FAIR      74  56  53 E8        29.83R                  
LANSING        FAIR      72  60  66 NE13      29.84S                  
MASON          FAIR      74  57  55 CALM      29.84S                  
MONROE         FAIR      71  60  67 E8        29.82R                  
MT. CLEMENS    MOSUNNY   72  60  65 NE13      29.83S                  
PONTIAC        PTSUNNY   75  58  55 E9        29.84R                  
PORT HOPE        N/A     58  48  69 NE13      29.91S                  
PORT HURON     FAIR      68  52  56 N6        29.88S                  
TRI CITIES     FAIR      65  53  65 NE22      29.90S                  
YPSILANTI      FAIR      77  57  50 E8        29.83S                  
$$
MIZ043>046-050>051-056>058-064>065-071>073-077>080-220000-
SOUTHWEST LOWER MICHIGAN
  
CITY           SKY/WX    TMP DP  RH WIND       PRES   REMARKS
BATTLE CREEK   FAIR      74  56  53 E6        29.83S                  
BENTON HARBOR  RAIN      65  62  90 E14       29.78F FOG              
BIG RAPIDS     FAIR      75  54  47 E9G25     29.88R                  
COLDWATER      CLOUDY    72  53  51 E8        29.82R                  
HOLLAND        FAIR      74  59  59 E8        29.82F                  
GRAND RAPIDS   PTSUNNY   73  61  65 NE9       29.83F                  
KALAMAZOO      PTSUNNY   73  61  65 CALM      29.82F                  
MARSHALL       FAIR      71  56  57 NE3       29.82S                  
MOUNT PLEASANT FAIR      69  53  56 E12       29.89R                  
MUSKEGON       PTSUNNY   76  57  51 E9        29.83S                  
STURGIS        RAIN      66  63  89 NE6       29.81F                  
$$
MIZ016>042-220000-
NORTHERN LOWER MICHIGAN
  
CITY           SKY/WX    TMP DP  RH WIND       PRES   REMARKS
ALPENA         FAIR      66  36  32 E8        29.97S                  
BEAVER ISLAND  FAIR      65  41  41 E12G17    29.95R                  
BELLAIRE       FAIR      74  37  26 E8        29.91S                  
CADILLAC       FAIR      73  55  53 E8        29.90S                  
CHARLEVOIX     FAIR      74  42  31 E8        29.94S                  
HOUGHTON LAKE  FAIR      72  40  31 E12       29.92S                  
OSCODA         FAIR      62  38  42 NE9       29.95S                  
PELLSTON       FAIR      70  40  33 E14       29.95S                  
TRAVERSE CITY  PTSUNNY   78  54  43 NE13G21   29.86S                  
LUDINGTON      FAIR      78  57  48 E9        29.84S                  
$$
MIZ007>008-015-220000-
EASTERN UPPER MICHIGAN
  
CITY           SKY/WX    TMP DP  RH WIND       PRES   REMARKS
KINROSS        FAIR      69  43  38 S7        29.96F                  
MACKINAC ISLAN FAIR      60  47  63 E10       29.96F                  
NEWBERRY       FAIR      73  41  32 SE9       29.94S                  
S. S. MARIE    FAIR      71  41  33 SE6       29.95S                  
$$
MIZ004>006-011>014-085-220000-
CENTRAL UPPER MICHIGAN
  
CITY           SKY/WX    TMP DP  RH WIND       PRES   REMARKS
MANISTIQUE     FAIR      67  33  28 E8        29.94S                  
ESCANABA       FAIR      68  51  54 SE6       29.93S                  
MENOMINEE      FAIR      66  52  60 E13G20    29.92F                  
SAWYER-GWINN   SUNNY     64  48  55 NE10      29.96S                  
$$
MIZ001>003-009>011-084-220000-
WESTERN UPPER MICHIGAN
  
CITY           SKY/WX    TMP DP  RH WIND       PRES   REMARKS
IRON MOUNTAIN  FAIR      72  57  59 SE7       29.92R                  
HOUGHTON       FAIR      62  43  49 E12       29.95F                  
COPPER HARBOR    N/A     60  42  51 SE7       29.96F                  
IRONWOOD       FAIR      69  50  50 NE8       29.94F                  
$$

ABBREVIATIONS USED IN REMARKS
   TC - TEMPERATURE IN CELSIUS
  WCI - WIND CHILL INDEX
   HX - HEAT INDEX
  VSB - VISIBILITY